Regional Weather Roundup
Issued by NWS

Home | Current Version | Previous Version | Graphics & Text | Print | Product List | Glossary On
Versions: 1 2 3 4 5 6 7 8 9 10 11 12 13 14 15 16 17 18 19 20 21 22 23 24 25 26 27 28 29 30 31 32 33 34 35 36 37 38 39 40 41 42 43 44 45 46 47 48 49 50
000
ASUS43 KDTX 202110
RWRMI
MICHIGAN HOURLY REGIONAL WEATHER ROUNDUP
NATIONAL WEATHER SERVICE DETROIT/PONTIAC MI
400 PM EST TUE FEB 20 2018

NOTE: "FAIR" INDICATES FEW OR NO CLOUDS BELOW 12,000 FEET WITH NO
SIGNIFICANT WEATHER AND/OR OBSTRUCTION TO VISIBILITY.

MIZ047>049-052>055-059>063-066>070-074>076-081>083-202200-
SOUTHEAST LOWER MICHIGAN

CITY           SKY/WX    TMP DP  RH WIND       PRES   REMARKS
ADRIAN         CLOUDY    60  58  92 S8        29.99F
ALMA           RAIN      56  56 100 S10G20    29.85F
ANN ARBOR      CLOUDY    60  58  92 S10       29.98S
BAD AXE        RAIN      58  57  97 S15       29.90F
CARO           LGT RAIN  59  58  97 S12       29.89F
DETROIT CITY   LGT RAIN  60  58  92 SW10      29.99F
DETROIT        CLOUDY    61  59  93 S12       29.99F
FLINT          LGT RAIN  60  58  92 S14G23    29.92F FOG
GROSSE ILE     FOG       47  46  99 S6        29.99S VSB<1/4
HILLSDALE      LGT RAIN  59  55  88 S9G16     29.96F
HOWELL         RAIN      60  58  94 S15G23    29.93F

CITY           SKY/WX    TMP DP  RH WIND       PRES   REMARKS
JACKSON        LGT RAIN  61  59  93 S14G23    29.94F
LAMBERTVILLE   PTSUNNY   63  60  88 S6        29.99F
LANSING        LGT RAIN  61  59  93 S17       29.90S
LAPEER         RAIN      60  59  97 S12G20    29.94F
MASON          RAIN      61  57  85 S9G20     29.92F
MONROE         PTSUNNY   62  59  90 S8        29.99F
MT. CLEMENS    LGT RAIN  60  60 100 S14       29.98S FOG
PONTIAC        LGT RAIN  60  58  92 S14G23    29.96F
PORT HOPE        N/A     60  55  83 VRB6      29.86F
PORT HURON     RAIN      57  55  94 S10G17    29.99S
TRI CITIES     CLOUDY    57  55  93 S12       29.87F
MIDLAND        CLOUDY    58  56  96 S7        29.84F
TROY           RAIN      61  58  92 S10       30.00F
SAGINAW HB     DRIZZLE   55  55 100 S12       29.87F
$$
MIZ043>046-050>051-056>058-064>065-071>073-077>080-202200-
SOUTHWEST LOWER MICHIGAN

CITY           SKY/WX    TMP DP  RH WIND       PRES   REMARKS
BATTLE CREEK   LGT RAIN  61  59  93 S18G26    29.91S
BENTON HARBOR  RAIN      64  60  87 S14G21    29.87R FOG
BIG RAPIDS     HVY RAIN  57  55  91 SW9       29.81R
COLDWATER      CLOUDY    62  62 100 S13G21    29.94F
FREMONT        RAIN      54  52  93 W10       29.85R
HOLLAND        LGT RAIN  63  59  87 SW22G41   29.85R
GRAND RAPIDS   LGT RAIN  62  60  93 S18G28    29.85S FOG
IONIA          RAIN      60  60 100 S17       29.86S
KALAMAZOO      LGT RAIN  63  59  87 S16G26    29.91S
LUDINGTON      CLOUDY    49  49 100 W10       29.82R
MARSHALL       LGT RAIN  61  60  97 S14G24    29.92S
MOUNT PLEASANT CLOUDY    57  56  95 S12       29.83F
MUSKEGON       RAIN      50  49  96 S6        29.86S FOG
SOUTH HAVEN    LGT RAIN  63  60  91 SW13G18   29.86R
$$
MIZ016>042-202200-
NORTHERN LOWER MICHIGAN

CITY           SKY/WX    TMP DP  RH WIND       PRES   REMARKS
ALPENA         CLOUDY    54  53  97 S7        29.80S
BEAVER ISLAND  CLOUDY    35  34  98 W12       29.81R FOG     WCI  27
BELLAIRE       MIX PCPN  52  52 100 S3        29.80R
CADILLAC       RAIN      54  53  99 SW3       29.82R
CHARLEVOIX     MIX PCPN  38  38 100 W9        29.85R WCI  31
FRANKFORT      LGT RAIN  40  40 100 W6        29.84R
GAYLORD        RAIN      50  50 100 SW9       29.81R FOG
GRAYLING       RAIN      54  54 100 SW3       29.80S VSB 1
HARBOR SPRINGS LGT RAIN  38  38  98 S3        29.80R VSB 1
HOUGHTON LAKE  CLOUDY    56  54  93 S8        29.81F
MANISTEE       LGT RAIN  50  49  96 W12G17    29.82R
OSCODA         CLOUDY    55  54  97 S12       29.84S
PELLSTON       LGT RAIN  38  38 100 CALM      29.81R VSB 1
ROGERS CITY    CLOUDY    52  50  93 S6        29.79S
TRAVERSE CITY  LGT RAIN  55  52  89 SW6       29.78S
$$
MIZ007>008-015-202200-
EASTERN UPPER MICHIGAN

CITY           SKY/WX    TMP DP  RH WIND       PRES   REMARKS
KINROSS        SNOW      29  28  96 E5        29.81R VSB 1/4 WCI  24
MACKINAC ISLAN FOG       32  32 100 SE6       29.81R VSB 1/4 WCI  26
NEWBERRY       CLOUDY    34  33  96 SW10      29.76R FOG     WCI  26
S. S. MARIE    FOG       31  29  92 E6        29.80S VSB 1/2 WCI  25
MUNISING         N/A     30  29  96 CALM      29.77F
$$
MIZ004>006-011>014-085-202200-
CENTRAL UPPER MICHIGAN

CITY           SKY/WX    TMP DP  RH WIND       PRES   REMARKS
MANISTIQUE     CLOUDY    34  33  94 CALM      29.78R
ESCANABA       CLOUDY    32  30  92 SW5       29.81R WCI  27
MENOMINEE      CLOUDY    33  31  92 W3        29.83R FOG
SAWYER-GWINN   CLOUDY    28  27  93 W6        29.76S WCI  22
$$
MIZ001>003-009>011-084-202200-
WESTERN UPPER MICHIGAN

CITY           SKY/WX    TMP DP  RH WIND       PRES   REMARKS
IRON MOUNTAIN  CLOUDY    32  29  88 W6        29.77R WCI  26
HOUGHTON       CLOUDY    26  22  84 NW15      29.78R FOG     WCI  14
COPPER HARBOR    N/A     28  24  85 NE9       29.77R WCI  19
IRONWOOD       LGT SNOW  21  18  88 NW10      29.87R FOG     WCI  10
$$

ABBREVIATIONS USED IN REMARKS
   TC - TEMPERATURE IN CELSIUS
  WCI - WIND CHILL INDEX
   HX - HEAT INDEX
  VSB - VISIBILITY





USA.gov is the U.S. government's official web portal to all federal, state and local government web resources and services.